STARLINK-35229 (65600 NORAD) Tracking and Keplerian Element Data

This shows tracking and keplerian element data for the satellite.

Feedback or suggestion? Click here.




ElementValue
Catalog65600
NameSTARLINK-35229
Epoch Orbit588
Epoch Day354.25003472
Epoch Year2025
RAAN60.1899
Inclination97.6029
Eccentricity0.000183
Argument of Perigee75.3591
Mean Anonmoly56.2444
Mean Motion15.26938507
Decay Rate-0.01727025
L11 65600U 25207J 25354.25003472 -.01727025 00000+0 -72377-1 0 9997
L22 65600 97.6029 60.1899 0001830 75.3591 56.2444 15.26938507 5889



Live tracking and technical data element details for STARLINK-35229 (NORAD 65600). STARLINK-35229 can be tracked NOW for your location showing map with azimuth and elevation plus other details from your city location.







IsCatalogInMostPopularTable: catalog: 65600, numindb: 3
Update: records affected: 1



GetName: 65600 STARLINK-35229

Hit Count: updated at: Sun, 08 Feb 2026 07:55:37 GMT